Home > Time Zones > World Clock > Weather > Palau > Koror > Past weeks

Flag for Palau Weather past 2 weeks in Koror, Palau

Now
88 °F

Broken clouds.


Feels Like: 100 °F
Forecast: 80 / 87 °F
Wind: 10 mph from Southwest

Location: Koror / Palau Island

Current Time: Sep 18, 2014 at 11:27:58 AM

Latest Report: Sep 18, 2014 at 10:50 AM


Visibility: 14 mi

Pressure: 29.88 "Hg

Humidity: 70%

Dew point: 77 °F

Location of KororLocation

Historic Weather in Koror — Graph

°F

Koror temperature yesterday

Maximum temperature yesterday: 88 °F (at 11:55 AM)
Minimum temperature yesterday: 77 °F (at 5:50 AM)
Average temperature yesterday: 82 °F

Past Weeks' High & Low Weather Summary

 TemperatureHumidityPressure
High90 °F (Sep 13, 12:50 PM)100% (Sep 3, 9:53 AM)29.91 "Hg (Sep 3, 9:53 AM)
Low73 °F (Sep 7, 1:51 AM)62% (Sep 5, 1:55 PM)27.24 "Hg (Sep 18, 2:50 AM)
Average82 °F89%29.81 "Hg
* Reported Sep 3 9:53 AM — Sep 18 9:50 AM, Koror, Weather by CustomWeather, © 2014

Note: Actual official high and low records may vary slightly from our data, if they occured in-between our weather recording intervals... More about our weather records

Advertising

Koror weather history for previous 24 hours

 ConditionsComfort  
Time TempWeatherWind HumidityBarometerVisibility
9:50 AM
Sep 18
88 °FPartly sunny.12 mph70%29.90 "Hg14 mi
8:50 AM86 °FBroken clouds.8 mph75%29.90 "Hg14 mi
7:50 AM86 °FBroken clouds.6 mph75%29.88 "Hg15 mi
6:50 AM82 °FBroken clouds.6 mph84%29.85 "Hg15 mi
5:50 AM81 °FPartly cloudy.7 mph84%29.83 "Hg14 mi
4:50 AM81 °FPassing clouds.7 mph84%29.82 "Hg14 mi
3:54 AM81 °FPassing clouds.7 mph84%29.81 "Hg14 mi
2:50 AMN/APassing clouds.9 mphN/A27.24 "Hg14 mi
1:50 AM82 °FPartly cloudy.9 mph79%29.83 "Hg14 mi
12:52 AM82 °FPartly cloudy.8 mph79%29.84 "Hg14 mi
11:50 PM
Sep 17
82 °FPartly cloudy.9 mph79%29.84 "Hg15 mi
10:51 PM82 °FPartly cloudy.9 mph79%29.85 "Hg15 mi
9:53 PM82 °FPartly cloudy.7 mph79%29.85 "Hg15 mi
8:55 PM82 °FPartly cloudy.10 mph84%29.84 "Hg15 mi
7:54 PM82 °FPartly cloudy.8 mph79%29.82 "Hg15 mi
6:50 PM82 °FPartly cloudy.10 mph79%29.78 "Hg15 mi
5:51 PM82 °FCloudy.12 mph79%29.76 "Hg15 mi
4:51 PM84 °FMostly cloudy.10 mph79%29.75 "Hg15 mi
3:54 PM84 °FMostly cloudy.8 mph79%29.74 "Hg14 mi
2:53 PM84 °FSprinkles. Mostly cloudy.13 mph84%29.72 "Hg12 mi
1:54 PM86 °FPartly sunny.12 mph75%29.73 "Hg14 mi
11:55 AM88 °FPartly sunny.15 mph70%29.77 "Hg14 mi
Weather by CustomWeather, © 2014

See weather overviewHow to use our weather pages